sat.trackr.live / text

‹ back to catalog

STARLINK-30395

NORAD 57812 · 2023-138E

PAYLOAD ACTIVE UNKNOWN

§ Identity

Operator
Country
US
Launch date
2023-09-09
Launch site
AFETR
Launch vehicle
Mass (kg)
RCS (m²)

Purposes: comms

External: N2YO · Heavens-Above · Gunter

§ Orbital elements

Epoch: 2026-09-20T21:41:25.043712Z

Period
94.27 min
Inclination
43.0023°
Eccentricity
0.0000770
Mean motion
15.27572400 rev/d
Perigee alt
482.5 km
Apogee alt
483.6 km
Semi-major
6,861.2 km
B*
-1.3379e-5
RAAN
211.7329°
Arg perigee
259.9538°
Mean anomaly
100.1227°
Rev number
16,859

§ Raw data

STARLINK-303951 57812U 23138E   26263.90376208 -.00000630  00000+0 -13379-4 0  99912 57812  43.0023 211.7329 0000770 259.9538 100.1227 15.27572400168592

JSON: /api/v1/satellites/57812 · /tle

For live sub-satellite position, see the globe view (requires WebGL).

§ Visibility from observer

Set your observer location to see the next 7 days of passes ≥ 10°. The values pass through the URL so the page stays shareable.

No JS? Fill the form by hand. The geolocation button needs JavaScript.